User: anonymous   Login
Location: ??
(35.5052°N, 139.7262°E)
Time: 07:14:58
(UTC+00:00)
Language:

Cosmos 2233 Rocket - Orbit

View from above orbital plane
View from above orbital plane
View from above satellite
View from above satellite

Ground track
Ground track

The orbit data is extracted from the following two-line orbital elements,

1 22488U 93008B   21265.56427274  .00000040  00000-0  24824-4 0  9995
2 22488  82.9472 358.7044 0025600 175.0114 196.3110 13.77728275438848
Epoch (UTC): 22 September 2021 13:32:33
Eccentricity: 0.0025600
inclination: 82.9472°
perigee height: 953 km
apogee height: 991 km
right ascension of ascending node: 358.7044°
argument of perigee: 175.0114°
revolutions per day: 13.77728275
mean anomaly at epoch: 196.3110°
orbit number at epoch: 43884

The dashed part of the orbit path shows where the satellite is in the earth's shadow,  

DLR